Wetbulb
67.03 63.12 58.84 55.54 48.66 46.60 43.37 46.82 49.41 50.27 50.12 49.77 50.20 49.22 48.49 49.25 52.43 46.35 57.98 63.73 61.34 61.99 66.29 72.71 74.31 73.66 72.92 72.93 72.63 72.31 71.47 70.65 69.83 69.15 68.17 67.69 67.41 67.41 67.52 67.52 67.48 67.45 67.45 67.63 67.15 66.95 66.87 66.72 66.71
64.65 61.94 57.73 54.90 45.62 41.69 43.87 49.39 49.88 51.47 53.05 49.60 49.23 49.19 49.08 49.28 56.58 58.23 60.22 63.85 61.69 63.84 66.91 71.50 74.35 73.98 73.53 73.08 72.96 72.59 72.07 71.07 70.25 69.60 68.66 67.96 68.21 67.85 68.15 68.21 68.25 68.41 68.40 68.67 68.50 68.15 67.75 67.24 67.18
60.84 58.02 54.74 51.41 45.98 43.09 44.04 50.12 50.85 53.48 54.55 52.34 48.89 51.39 51.51 52.38 57.66 58.47 61.77 64.36 63.80 64.34 68.26 70.59 74.40 74.08 73.66 73.36 72.94 72.64 72.32 71.67 70.72 69.40 68.95 69.05 69.08 69.78 70.06 68.77 68.62 68.77 69.13 69.62 69.28 68.86 68.76 68.08 67.78
57.46 57.18 54.41 47.59 45.70 48.46 48.90 52.26 53.48 51.42 52.30 49.85 50.07 50.17 53.29 56.63 58.05 59.81 63.27 64.37 64.45 65.21 68.39 70.96 74.23 74.05 73.76 73.51 73.39 73.03 72.42 72.02 71.33 70.04 69.82 70.15 70.10 69.85 69.55 69.41 69.38 69.13 69.32 68.99 68.47 69.29 69.47 69.14 68.55
58.21 54.53 47.86 43.95 47.06 49.78 52.01 53.32 51.90 49.86 48.10 48.52 50.30 50.04 51.26 56.02 60.11 62.27 63.77 64.57 63.76 65.24 67.19 69.49 74.03 74.10 73.88 73.88 73.58 73.41 72.76 72.44 72.24 71.13 70.35 70.68 70.17 69.85 69.49 69.40 69.06 68.98 69.05 68.64 68.38 68.75 69.92 69.50 69.14
53.01 50.82 42.96 41.42 45.53 49.54 50.23 52.64 50.57 49.50 49.25 49.37 49.95 50.37 51.63 56.10 59.55 63.00 63.46 62.94 63.79 64.37 65.57 68.34 73.56 74.02 73.80 73.91 73.68 73.28 73.02 72.58 72.38 72.00 71.31 70.47 70.03 69.71 69.27 68.86 68.85 68.71 68.45 68.00 67.71 69.01 69.60 69.78 69.05
50.94 46.44 42.84 43.17 45.47 47.47 50.25 51.67 49.18 48.19 48.77 49.97 50.46 49.07 51.08 54.26 58.44 64.25 63.31 61.93 62.89 63.97 65.87 68.31 71.21 73.01 74.00 73.65 73.35 73.14 72.62 72.46 72.65 71.84 70.70 69.56 68.95 67.25 66.78 66.66 67.10 67.52 67.65 67.35 67.52 67.62 68.60 69.25 68.32
52.97 47.84 43.05 44.39 43.55 45.23 50.54 49.62 49.66 49.40 51.39 53.28 55.15 49.33 49.49 54.05 58.21 60.26 61.46 61.57 62.92 64.24 65.58 67.91 70.39 71.19 71.06 71.61 73.67 73.31 72.89 72.12 71.09 69.76 68.96 66.40 66.03 65.94 65.57 65.48 65.35 65.79 66.00 66.04 66.56 66.90 67.27 68.30 68.27
52.76 44.91 42.00 43.55 44.37 46.63 48.75 47.62 51.43 53.85 51.05 51.10 53.31 52.99 55.28 57.03 56.10 57.66 58.74 59.87 61.67 64.68 65.65 67.24 68.44 68.34 68.28 68.93 71.13 72.86 71.11 70.20 69.48 67.52 66.32 66.66 63.32 62.18 63.24 63.69 64.21 64.59 65.52 66.00 66.24 66.26 67.04 67.52 67.20
49.36 44.35 45.09 50.16 49.45 48.23 48.70 49.57 51.77 51.00 52.36 50.47 51.60 53.84 55.79 55.77 55.15 56.08 56.46 58.52 58.94 61.94 63.40 65.66 65.61 65.73 65.73 67.35 66.46 66.43 65.70 64.44 62.87 63.36 62.67 62.26 61.37 61.06 62.20 63.16 64.16 65.07 65.74 66.07 66.58 66.87 66.70 66.60 64.72
49.00 47.23 51.22 51.88 52.57 50.79 51.03 51.38 52.75 51.83 51.15 53.62 51.67 54.04 53.75 54.03 53.67 54.81 56.52 58.65 60.02 61.23 63.26 63.38 63.59 63.13 63.49 64.03 63.17 62.76 61.45 61.28 61.34 61.91 61.81 60.70 59.93 59.28 60.56 60.47 60.61 60.54 62.62 63.05 63.40 63.40 64.23 64.61 63.63
45.92 50.58 52.61 52.90 53.52 51.47 50.77 52.72 52.81 53.54 53.64 56.50 55.74 55.35 54.15 53.27 52.56 53.59 54.61 56.79 55.67 55.32 59.39 60.88 61.40 61.42 61.36 61.50 61.37 61.50 60.21 59.50 59.34 59.75 60.65 59.14 58.78 58.61 58.75 58.72 59.38 59.84 60.95 61.14 61.68 62.01 62.76 63.28 63.14
47.45 50.64 52.24 52.69 51.84 52.86 52.97 51.61 52.36 53.26 56.45 57.14 56.15 53.64 52.47 53.31 54.10 54.89 55.98 56.15 53.52 52.42 54.61 58.27 58.80 59.34 59.80 59.43 59.43 59.62 59.19 59.68 59.11 58.95 59.27 59.12 58.37 58.33 58.85 58.99 59.48 60.79 61.84 61.22 61.45 61.11 61.54 61.88 62.39
49.45 50.79 51.57 51.51 52.61 53.42 51.68 52.03 53.48 54.88 57.32 55.81 55.11 53.33 52.40 53.42 53.95 53.48 52.35 53.36 51.74 52.19 53.89 56.55 57.77 58.04 58.33 58.33 58.35 58.95 58.77 59.24 59.20 58.91 59.33 59.88 59.22 58.91 58.71 59.00 59.99 60.30 60.05 59.92 60.30 60.26 60.82 61.00 61.91
46.49 43.79 45.63 47.35 48.93 48.93 51.25 47.88 49.60 54.55 54.65 52.04 52.49 52.88 52.02 53.43 54.10 53.28 54.77 55.03 54.19 52.13 54.32 56.87 57.38 57.81 58.22 58.22 58.53 58.73 58.85 59.30 58.89 59.42 59.84 60.43 60.11 59.55 59.33 59.56 59.72 59.01 59.31 59.31 59.29 59.65 60.23 60.19 60.41
41.77 41.56 37.44 44.69 47.77 48.65 48.77 42.69 50.21 53.29 51.77 51.50 52.08 52.45 51.56 51.64 54.02 55.29 55.38 54.17 51.73 53.37 55.23 56.49 58.94 58.31 58.33 57.97 57.99 58.52 58.73 58.61 59.12 59.52 60.16 60.74 60.84 60.04 59.17 59.26 58.73 58.99 58.85 58.87 58.30 58.57 58.73 59.15 59.27
38.17 36.93 37.86 40.60 46.34 46.09 47.03 43.60 49.76 50.57 50.17 49.92 50.80 51.25 51.56 51.15 51.37 53.76 53.57 51.47 53.27 54.45 55.24 56.32 58.06 57.94 58.12 57.33 57.24 57.74 58.99 59.17 59.58 59.72 59.73 60.29 61.15 61.04 59.57 58.96 58.73 58.80 58.51 57.97 57.75 57.57 58.31 58.01 58.33
34.86 35.18 38.10 39.12 43.85 44.91 43.25 43.73 48.34 50.55 49.94 49.48 49.75 50.16 50.35 50.50 51.41 52.28 51.79 51.70 53.94 54.96 56.06 57.08 57.42 57.60 57.56 57.01 57.24 57.87 58.13 58.93 59.44 60.22 60.39 60.69 60.85 61.84 60.22 58.94 58.23 58.67 57.83 57.03 56.75 57.15 58.09 58.36 58.50
40.03 38.63 37.78 39.82 45.23 43.76 42.25 43.04 46.01 49.21 47.84 47.60 49.05 50.03 50.32 50.40 50.59 50.85 51.46 51.96 54.12 55.28 55.72 56.14 56.22 56.32 56.53 56.67 56.25 56.59 57.14 58.02 59.12 60.43 61.35 61.34 61.63 61.31 59.19 58.49 57.97 58.35 57.31 57.11 57.03 57.17 57.16 57.59 58.41
40.40 37.76 37.59 41.58 45.91 44.34 42.93 42.73 45.93 47.80 48.20 48.00 49.51 50.15 50.36 48.39 49.93 50.78 50.15 51.98 54.24 55.25 55.89 55.75 56.29 56.20 56.98 56.36 57.14 57.68 57.48 58.31 59.15 60.10 61.43 61.91 61.80 60.94 59.24 58.26 58.73 58.11 57.15 56.55 56.87 57.25 56.65 57.07 58.25
39.51 38.44 39.02 38.73 44.70 44.58 42.42 40.67 43.17 47.36 48.05 48.45 49.07 49.60 49.11 48.58 49.57 50.25 49.88 51.21 54.01 54.76 55.62 56.29 56.40 57.01 57.09 57.05 57.76 57.55 57.55 57.81 57.99 58.63 59.37 59.89 60.25 60.74 60.30 59.39 58.95 58.19 57.15 56.27 56.39 57.29 57.52 56.39 57.13
37.72 43.65 42.54 41.86 40.95 34.65 41.88 31.51 40.57 43.67 46.38 46.99 47.99 47.28 48.49 48.77 50.18 50.13 49.86 51.26 53.68 54.79 56.12 56.37 56.43 56.78 57.27 57.70 56.73 56.48 56.27 56.03 56.67 57.75 58.41 58.95 60.12 60.57 60.21 59.83 59.16 58.19 57.37 56.51 56.85 57.86 58.56 58.42 57.25
41.03 45.79 42.93 43.31 39.32 35.01 37.78 33.66 38.71 41.83 42.50 45.88 47.20 48.06 47.57 47.36 50.00 49.61 50.05 52.56 54.44 55.20 55.85 56.18 56.36 56.66 57.02 57.88 57.37 57.44 56.58 56.59 57.43 57.49 57.81 58.88 59.16 61.01 60.07 59.26 58.44 58.17 57.73 57.53 57.25 57.83 57.97 58.69 58.41
45.48 41.94 40.45 38.94 35.77 30.77 37.19 35.80 35.08 39.64 43.79 45.07 46.64 47.65 48.70 47.96 49.76 49.95 51.15 53.62 52.97 54.34 55.56 55.86 56.11 55.77 56.94 57.33 57.61 57.70 56.41 56.77 56.19 56.71 56.61 56.87 57.71 59.57 59.36 58.95 58.87 58.39 58.28 58.00 57.97 58.34 58.40 58.48 58.83
41.53 35.76 27.77 25.27 25.60 28.18 38.76 35.20 38.91 43.15 45.31 46.74 47.55 47.49 47.47 48.70 49.58 50.21 51.42 51.76 52.14 53.27 54.86 55.40 55.48 55.61 56.57 57.38 57.94 57.13 57.24 56.92 56.42 56.59 56.43 56.07 56.53 58.17 57.88 58.29 58.20 58.65 58.91 59.14 58.86 58.93 58.89 58.70 59.56
39.89 37.84 29.05 24.11 26.35 32.28 38.20 33.83 39.90 45.99 48.26 48.21 48.67 47.50 47.94 49.04 49.83 50.49 51.59 51.88 52.59 53.42 54.56 54.90 54.44 55.38 56.66 57.40 57.57 57.18 57.58 56.57 56.19 56.57 56.67 55.97 56.17 56.93 57.87 58.68 59.18 59.69 60.44 59.96 59.83 59.99 59.61 59.36 60.41
39.29 34.34 40.35 33.76 35.76 30.97 33.80 39.36 44.46 45.82 46.69 46.93 46.42 47.27 46.87 48.42 49.49 50.36 51.27 51.84 52.43 53.35 54.35 54.57 53.90 55.03 56.01 56.86 57.22 56.93 57.52 56.36 56.90 57.23 56.83 56.23 56.67 57.72 58.38 58.80 59.48 60.13 60.21 60.64 60.37 60.82 60.82 60.71 60.72
39.14 41.81 33.64 34.30 26.01 25.15 32.71 35.18 37.54 41.66 43.76 46.25 46.16 45.66 46.39 48.88 49.90 50.74 51.04 51.52 52.38 53.54 54.18 54.65 54.42 54.11 54.89 56.36 57.09 57.54 57.58 57.15 57.20 57.21 56.85 56.61 57.25 58.27 58.42 58.77 59.47 60.07 60.65 60.72 60.76 61.27 62.07 62.28 60.95
36.00 35.31 34.39 36.68 31.94 28.39 26.86 33.28 41.58 44.04 45.05 46.00 46.33 46.21 46.99 49.34 50.52 51.38 50.86 51.78 52.38 53.00 53.37 53.62 54.43 54.25 54.63 56.60 56.43 58.89 58.37 57.68 57.10 57.48 56.92 56.90 57.08 57.67 58.34 59.22 59.63 59.81 59.95 60.03 61.23 61.39 61.68 61.71 61.46
41.58 38.87 36.82 33.90 29.94 33.92 33.00 33.89 44.38 44.92 44.44 45.40 46.44 47.31 47.76 49.71 50.76 51.45 51.58 50.74 51.35 51.96 52.36 52.85 54.21 54.35 54.74 56.68 56.74 58.66 59.06 58.21 57.40 57.30 56.90 57.37 57.14 58.05 58.59 59.82 59.87 59.74 59.70 60.69 61.01 60.89 61.79 61.60 61.26
MSLP
1013.32 1013.62 1013.59 1014.28 1015.58 1015.71 1014.86 1013.14 1011.66 1010.45 1009.54 1008.60 1008.02 1008.34 1008.49 1008.56 1009.48 1009.51 1007.72 1007.81 1008.08 1008.77 1009.63 1010.29 1010.77 1011.21 1011.54 1011.93 1012.23 1012.56 1012.91 1013.18 1013.35 1013.53 1013.71 1013.90 1014.12 1014.26 1014.43 1014.70 1014.95 1014.98 1015.01 1014.69 1014.51 1014.68 1014.87 1014.85 1014.90
1013.13 1013.48 1013.58 1014.39 1015.69 1015.86 1014.00 1012.17 1011.03 1009.75 1008.81 1008.11 1007.96 1007.72 1007.81 1007.67 1007.76 1007.65 1007.68 1007.76 1007.95 1008.56 1009.27 1009.77 1010.17 1010.60 1011.09 1011.60 1012.01 1012.45 1012.84 1013.11 1013.37 1013.53 1013.67 1013.79 1013.89 1014.04 1014.19 1014.31 1014.61 1014.73 1014.93 1014.68 1014.52 1014.69 1014.62 1014.71 1014.64
1013.08 1012.70 1013.72 1014.69 1015.57 1015.30 1013.39 1011.24 1010.21 1008.93 1007.99 1007.83 1007.48 1007.30 1007.24 1007.13 1007.09 1007.03 1006.76 1007.27 1008.02 1008.59 1008.89 1009.36 1009.70 1010.25 1010.81 1011.34 1011.73 1012.10 1012.63 1012.95 1013.17 1013.39 1013.55 1013.59 1013.70 1013.71 1014.00 1013.87 1014.23 1014.41 1014.53 1014.46 1014.31 1014.22 1014.47 1014.52 1014.52
1013.06 1013.36 1014.42 1014.88 1015.08 1014.17 1012.46 1010.41 1009.76 1008.93 1007.55 1007.42 1007.23 1007.35 1007.03 1006.28 1006.50 1006.19 1006.40 1007.28 1007.92 1008.18 1008.54 1009.02 1009.48 1009.93 1010.53 1010.98 1011.40 1011.84 1012.30 1012.59 1012.81 1013.02 1013.36 1013.51 1013.49 1013.62 1013.80 1013.60 1013.83 1014.01 1014.08 1014.11 1014.12 1014.08 1014.16 1014.22 1014.36
1013.16 1014.20 1014.83 1015.02 1014.27 1012.99 1011.51 1010.08 1009.50 1008.91 1008.38 1007.54 1007.59 1007.12 1006.85 1006.14 1006.25 1006.55 1006.68 1007.02 1007.40 1008.08 1008.47 1008.81 1009.31 1009.95 1010.13 1010.52 1010.97 1011.49 1011.89 1012.19 1012.53 1012.72 1012.86 1013.03 1013.35 1013.45 1013.62 1013.50 1013.68 1013.68 1013.73 1013.79 1013.77 1013.78 1013.79 1013.94 1014.22
1013.83 1014.64 1015.30 1014.81 1013.47 1011.97 1010.69 1009.45 1009.08 1008.50 1007.81 1007.29 1007.23 1007.27 1006.68 1006.38 1006.47 1006.72 1006.94 1007.06 1007.45 1007.93 1008.44 1008.76 1009.12 1009.63 1010.09 1010.18 1010.63 1011.12 1011.53 1011.86 1012.15 1012.47 1012.66 1012.77 1012.92 1013.28 1013.45 1013.39 1013.40 1013.39 1013.37 1013.45 1013.57 1013.65 1013.69 1013.82 1013.94
1013.76 1014.78 1014.85 1014.14 1012.61 1011.36 1009.78 1008.41 1008.43 1007.98 1007.45 1006.98 1006.94 1007.04 1006.82 1006.40 1006.44 1006.71 1007.04 1007.43 1007.56 1008.09 1008.52 1008.75 1009.01 1009.42 1009.90 1010.23 1010.44 1010.88 1011.26 1011.66 1011.90 1012.18 1012.47 1012.73 1012.91 1013.21 1013.34 1013.28 1013.29 1013.29 1013.27 1013.31 1013.38 1013.43 1013.44 1013.43 1013.53
1013.21 1014.33 1014.24 1013.41 1012.19 1010.59 1008.70 1007.98 1007.37 1007.38 1006.85 1006.79 1006.86 1006.84 1006.61 1006.08 1006.17 1006.67 1007.26 1007.76 1007.92 1008.20 1008.56 1008.62 1008.64 1009.04 1009.57 1010.24 1010.43 1010.71 1011.08 1011.39 1011.68 1012.09 1012.36 1012.65 1012.83 1013.05 1013.10 1013.13 1013.17 1013.12 1013.02 1012.99 1013.01 1012.97 1013.05 1013.13 1013.27
1012.82 1013.80 1013.46 1012.13 1011.43 1009.41 1008.45 1008.20 1007.53 1006.95 1006.96 1006.73 1006.49 1006.46 1005.92 1006.27 1006.74 1007.10 1007.42 1008.00 1008.18 1008.43 1008.52 1008.71 1008.92 1008.99 1009.56 1010.21 1010.55 1010.74 1010.99 1011.24 1011.59 1011.96 1012.20 1012.52 1012.84 1013.01 1013.07 1013.06 1012.94 1012.80 1012.79 1012.78 1012.79 1012.76 1012.73 1012.77 1012.92
1012.69 1012.68 1011.70 1009.72 1009.61 1008.85 1008.26 1008.37 1007.93 1007.37 1006.80 1006.54 1006.37 1005.75 1005.81 1006.59 1007.02 1007.18 1007.43 1007.37 1007.85 1008.02 1008.39 1008.58 1008.77 1009.13 1009.36 1009.96 1010.53 1010.85 1011.06 1011.31 1011.64 1011.97 1012.22 1012.49 1012.72 1012.92 1012.98 1012.95 1012.82 1012.65 1012.55 1012.43 1012.35 1012.29 1012.31 1012.41 1012.73
1011.62 1011.00 1009.68 1008.98 1008.54 1008.89 1008.30 1007.77 1007.92 1007.30 1006.78 1006.29 1006.32 1005.93 1005.87 1006.42 1007.10 1006.90 1006.67 1006.81 1006.34 1007.17 1007.96 1008.30 1008.62 1009.18 1009.63 1009.90 1010.43 1010.96 1011.25 1011.51 1011.75 1011.96 1012.09 1012.40 1012.64 1012.80 1012.83 1012.94 1012.87 1012.81 1012.62 1012.55 1012.42 1012.36 1012.22 1012.34 1012.56
1011.06 1010.22 1009.47 1008.29 1008.37 1008.61 1008.33 1008.00 1007.26 1007.07 1006.34 1005.80 1005.58 1005.53 1005.70 1006.04 1006.47 1006.63 1006.15 1006.15 1006.52 1006.85 1007.33 1007.99 1008.55 1009.14 1009.68 1009.94 1010.41 1010.63 1011.22 1011.53 1011.80 1011.81 1011.92 1012.29 1012.48 1012.65 1012.67 1012.73 1012.63 1012.59 1012.51 1012.41 1012.33 1012.40 1012.35 1012.38 1012.43
1010.24 1009.41 1008.90 1008.70 1008.43 1007.68 1007.82 1007.56 1007.06 1006.38 1005.16 1005.27 1005.05 1005.03 1005.12 1005.28 1005.28 1005.56 1004.99 1005.36 1006.07 1006.71 1007.36 1007.81 1008.31 1008.96 1009.57 1010.05 1010.39 1010.55 1011.05 1011.39 1011.41 1011.60 1011.70 1011.96 1012.17 1012.25 1012.22 1012.26 1012.23 1012.22 1012.22 1012.17 1012.24 1012.29 1012.31 1012.43 1012.51
1008.95 1009.15 1008.79 1008.59 1008.01 1007.25 1007.17 1006.97 1006.66 1004.84 1004.63 1004.67 1004.51 1004.47 1004.28 1004.56 1004.37 1004.97 1005.31 1004.89 1005.57 1006.02 1006.92 1007.83 1008.65 1009.01 1009.41 1009.86 1010.17 1010.38 1010.70 1010.97 1011.14 1011.26 1011.31 1011.45 1011.53 1011.65 1011.77 1011.84 1011.90 1011.94 1011.90 1012.05 1012.07 1012.17 1012.28 1012.44 1012.53
1008.58 1008.83 1008.48 1007.97 1006.86 1006.49 1006.58 1006.41 1005.27 1003.83 1004.45 1004.44 1004.08 1003.83 1003.72 1003.63 1004.00 1004.08 1003.84 1003.67 1004.26 1005.42 1006.85 1007.65 1008.28 1008.83 1009.13 1009.68 1009.96 1010.28 1010.46 1010.65 1010.97 1010.88 1010.92 1010.94 1011.01 1011.09 1011.31 1011.42 1011.52 1011.55 1011.67 1011.82 1011.91 1012.11 1012.17 1012.38 1012.52
1008.47 1008.52 1008.09 1006.68 1006.17 1006.09 1006.24 1004.95 1003.73 1003.76 1004.03 1003.85 1003.55 1003.34 1003.41 1002.99 1002.95 1002.80 1003.19 1003.28 1004.13 1005.28 1006.42 1007.45 1007.96 1008.61 1009.23 1009.55 1009.86 1010.17 1010.31 1010.33 1010.55 1010.52 1010.53 1010.55 1010.52 1010.59 1010.89 1011.06 1011.12 1011.23 1011.47 1011.57 1011.85 1011.93 1012.15 1012.37 1012.52
1008.60 1007.90 1007.70 1006.96 1005.84 1006.03 1005.77 1004.61 1003.49 1003.50 1003.69 1003.43 1003.16 1002.83 1002.87 1002.61 1002.40 1002.23 1002.48 1003.13 1003.76 1004.71 1005.93 1007.14 1007.71 1008.43 1009.12 1009.48 1009.86 1010.09 1010.12 1010.10 1010.11 1010.02 1009.99 1009.93 1009.98 1010.22 1010.59 1010.68 1010.87 1011.02 1011.22 1011.42 1011.54 1011.81 1012.09 1012.30 1012.49
1008.12 1008.13 1007.56 1006.22 1005.75 1005.75 1005.40 1004.80 1003.93 1003.00 1003.48 1002.90 1002.64 1002.50 1002.33 1001.88 1001.19 1001.37 1002.26 1003.22 1003.85 1004.65 1005.68 1006.78 1007.64 1008.24 1008.95 1009.41 1009.77 1009.88 1009.87 1009.79 1009.62 1009.58 1009.54 1009.56 1009.62 1009.84 1010.14 1010.40 1010.58 1010.75 1011.10 1011.32 1011.59 1011.85 1012.01 1012.16 1012.23
1007.39 1007.47 1006.73 1005.88 1005.93 1005.95 1005.20 1004.80 1004.19 1003.04 1003.10 1002.58 1002.23 1001.98 1001.40 1001.08 1001.01 1001.37 1002.06 1003.16 1004.22 1004.92 1005.79 1006.55 1007.53 1008.33 1008.87 1009.48 1009.79 1009.77 1009.51 1009.51 1009.33 1009.30 1009.21 1009.26 1009.45 1009.51 1009.89 1010.14 1010.42 1010.66 1010.94 1011.11 1011.43 1011.69 1011.87 1012.15 1012.26
1006.92 1007.10 1006.41 1005.86 1006.14 1006.00 1005.24 1004.70 1003.77 1002.92 1002.05 1001.93 1001.71 1001.24 1000.81 1001.07 1001.35 1001.89 1002.47 1003.06 1003.41 1004.26 1005.24 1006.41 1007.37 1008.17 1008.56 1008.89 1008.99 1008.88 1009.21 1009.30 1009.27 1009.24 1009.07 1009.06 1009.07 1009.22 1009.55 1009.84 1010.19 1010.43 1010.84 1011.04 1011.28 1011.50 1011.70 1011.97 1012.10
1006.23 1006.34 1005.99 1006.22 1006.20 1005.77 1005.36 1004.68 1003.61 1002.17 1001.73 1001.16 1000.88 1000.60 1000.30 1000.63 1001.11 1001.81 1002.66 1003.15 1003.72 1004.52 1005.54 1006.25 1007.16 1007.92 1008.33 1008.43 1008.58 1008.92 1009.22 1009.25 1009.26 1009.22 1009.09 1009.11 1008.94 1008.97 1009.24 1009.67 1010.00 1010.27 1010.60 1010.86 1011.05 1011.23 1011.39 1011.76 1012.12
1005.30 1005.16 1005.85 1006.41 1007.01 1006.61 1005.81 1005.04 1004.13 1002.68 1001.40 1000.69 1000.16 999.87 1000.01 1000.43 1001.75 1002.08 1002.92 1003.64 1004.11 1004.95 1005.57 1006.14 1007.10 1007.77 1007.99 1008.12 1008.46 1008.84 1009.18 1009.41 1009.32 1009.24 1009.20 1009.14 1008.94 1008.91 1009.13 1009.57 1009.87 1010.13 1010.46 1010.68 1010.80 1011.01 1011.21 1011.32 1011.62
1003.78 1004.78 1005.51 1006.22 1006.68 1006.77 1006.27 1006.17 1003.52 1002.69 1001.49 1000.46 999.82 999.41 999.69 1000.54 1001.42 1002.44 1003.08 1003.59 1004.32 1005.05 1005.70 1006.30 1007.09 1007.58 1007.72 1007.98 1008.35 1008.74 1009.00 1009.19 1009.16 1009.20 1009.23 1009.17 1009.04 1009.08 1009.35 1009.58 1009.80 1010.05 1010.24 1010.43 1010.55 1010.88 1011.07 1011.24 1011.32
1003.75 1004.80 1005.52 1006.22 1006.99 1006.52 1005.95 1006.18 1003.12 1002.20 1000.51 1000.00 999.29 999.48 1000.01 1000.82 1001.83 1002.62 1003.48 1003.99 1004.66 1005.35 1005.92 1006.56 1007.10 1007.44 1007.70 1008.02 1008.32 1008.57 1008.83 1008.99 1009.18 1009.25 1009.29 1009.34 1009.30 1009.24 1009.47 1009.60 1009.77 1009.91 1010.07 1010.19 1010.34 1010.51 1010.87 1011.17 1011.20
1003.56 1005.02 1006.83 1007.03 1007.45 1006.60 1005.12 1005.12 1001.79 1000.25 999.78 999.32 999.12 999.42 1000.41 1001.86 1002.01 1002.93 1003.43 1004.10 1004.99 1005.70 1006.15 1006.60 1007.02 1007.46 1007.69 1008.00 1008.26 1008.48 1008.71 1008.94 1009.15 1009.17 1009.33 1009.42 1009.41 1009.46 1009.66 1009.70 1009.81 1009.90 1009.84 1009.99 1010.12 1010.33 1010.72 1010.99 1011.12
1002.69 1004.21 1005.65 1007.00 1006.97 1005.85 1004.10 1003.23 999.69 998.88 998.67 998.48 998.78 999.52 1000.80 1002.37 1002.45 1002.98 1003.44 1004.04 1004.85 1005.55 1006.11 1006.55 1007.00 1007.40 1007.64 1007.94 1008.23 1008.40 1008.65 1009.00 1009.06 1009.18 1009.27 1009.35 1009.48 1009.64 1009.74 1009.76 1009.80 1009.78 1009.72 1009.95 1009.99 1010.17 1010.47 1010.69 1010.94
1001.92 1003.03 1004.06 1005.52 1005.70 1005.44 1003.84 1001.27 999.13 997.95 997.79 997.96 998.64 999.86 1001.11 1002.42 1002.70 1002.92 1003.57 1004.07 1004.83 1005.44 1006.01 1006.35 1006.92 1007.31 1007.55 1007.79 1008.18 1008.39 1008.70 1008.87 1009.05 1009.17 1009.20 1009.36 1009.63 1009.77 1009.84 1009.86 1009.85 1009.89 1009.92 1009.99 1010.13 1010.18 1010.28 1010.58 1010.82
1000.10 1001.91 1003.84 1004.89 1005.29 1005.13 1003.20 1001.60 999.52 998.20 997.91 998.07 999.09 1000.20 1001.52 1002.43 1003.02 1003.18 1003.77 1004.27 1004.79 1005.35 1005.81 1006.33 1006.73 1007.06 1007.34 1007.69 1008.02 1008.28 1008.53 1008.76 1009.09 1009.20 1009.23 1009.44 1009.79 1009.86 1009.96 1009.99 1010.06 1010.05 1010.12 1010.19 1010.38 1010.48 1010.44 1010.54 1010.87
1000.18 1001.25 1002.15 1003.19 1004.19 1003.98 1003.39 1000.76 998.54 997.96 997.76 998.33 998.76 999.93 1001.41 1001.84 1002.60 1003.07 1003.72 1004.29 1004.74 1005.37 1005.95 1006.42 1006.78 1007.05 1007.28 1007.60 1007.97 1008.13 1008.35 1008.78 1009.10 1009.19 1009.36 1009.57 1009.83 1009.92 1010.03 1010.08 1010.19 1010.24 1010.44 1010.59 1010.55 1010.61 1010.62 1010.70 1010.87
998.75 999.52 1000.70 1001.88 1002.84 1002.90 1002.21 999.94 997.75 997.37 997.50 998.20 998.98 999.91 1001.34 1002.17 1002.43 1003.02 1003.59 1004.30 1005.01 1005.44 1006.09 1006.48 1006.72 1006.95 1007.12 1007.50 1007.82 1008.06 1008.19 1008.76 1009.08 1009.20 1009.41 1009.62 1009.91 1010.02 1010.12 1010.19 1010.24 1010.44 1010.58 1010.72 1010.82 1010.71 1010.73 1010.82 1011.00
Wind_Speed
8 6 3 3 4 4 4 7 3 5 4 4 3 6 9 6 8 8 6 11 9 14 12 18 21 20 20 18 18 17 15 15 15 14 13 12 11 11 10 9 9 9 10 9 7 7 8 8 8
6 4 3 3 4 1 6 4 6 6 5 3 1 1 1 5 3 3 3 8 10 14 14 17 23 23 21 20 18 16 15 15 15 14 14 13 13 13 12 11 11 11 12 11 9 9 9 9 9
5 2 4 3 3 6 5 6 4 8 9 7 4 3 3 4 3 5 5 12 10 13 14 17 25 23 21 19 17 16 16 15 16 15 15 14 14 14 15 13 13 14 14 13 12 11 11 10 10
2 4 4 3 7 7 6 7 4 9 9 5 2 3 3 6 4 7 8 12 12 13 14 18 23 22 20 20 18 17 17 16 16 16 15 16 15 15 14 15 16 16 15 15 14 13 12 12 11
4 3 1 2 6 7 7 9 4 8 5 4 1 4 5 3 1 5 10 12 14 10 10 13 21 20 21 20 19 17 17 16 16 16 16 16 14 14 15 16 17 16 16 16 15 15 13 13 13
4 3 1 5 6 6 6 10 3 4 3 5 3 3 6 3 5 7 8 10 9 12 8 9 19 20 20 19 18 17 16 16 15 14 13 12 12 12 14 14 15 16 16 16 16 15 14 12 13
5 4 5 4 6 7 7 5 5 2 4 5 2 3 5 5 8 8 7 6 7 7 9 8 11 16 18 17 17 17 15 14 13 10 9 9 9 10 12 13 14 15 15 16 17 17 16 13 13
5 4 3 6 4 10 7 3 5 3 6 0 3 4 7 5 7 8 6 5 5 6 7 10 10 10 9 9 16 16 14 13 11 11 10 10 9 9 9 9 9 12 15 17 17 18 18 15 12
4 2 7 8 7 10 2 3 3 1 4 2 5 6 6 2 7 7 5 2 4 4 7 7 8 7 7 6 8 13 15 13 12 11 11 8 3 4 6 7 10 10 11 13 14 17 18 16 15
6 7 12 12 9 7 3 2 5 4 9 6 7 8 5 5 7 9 8 12 8 9 8 8 7 7 7 5 5 5 5 4 4 4 5 2 3 4 5 8 11 12 12 13 15 13 16 15 3
7 15 19 15 15 1 6 9 1 7 15 13 9 14 5 6 7 12 13 13 18 13 8 9 8 6 7 6 4 3 2 2 3 5 4 4 2 3 3 2 3 3 7 3 4 4 3 4 4
4 13 20 19 13 5 8 5 15 14 18 18 15 11 5 9 12 14 14 15 10 9 11 8 8 7 6 4 4 4 3 3 3 4 5 3 3 3 4 3 4 3 3 4 2 2 3 3 4
9 13 10 11 11 14 8 12 18 20 24 15 13 9 12 11 15 15 19 12 7 8 7 10 9 8 6 6 4 4 4 4 5 4 5 4 4 5 4 4 3 3 3 3 2 2 2 3 4
6 15 18 9 21 20 19 15 13 25 18 14 14 14 11 12 18 11 8 12 11 9 9 8 8 7 8 6 6 5 4 5 4 4 5 6 5 5 4 4 4 3 3 2 2 2 2 3 3
5 7 8 12 15 10 10 13 22 28 9 11 14 14 12 13 10 16 22 19 15 6 10 13 11 8 8 7 6 4 4 4 4 5 6 7 6 6 5 4 4 3 3 4 2 2 2 2 3
3 2 3 6 4 7 11 12 22 15 9 17 15 13 10 13 17 20 17 9 10 12 13 10 9 8 7 6 5 4 4 4 4 4 4 6 7 6 5 4 4 3 3 2 3 2 2 2 3
3 11 11 9 7 4 8 13 16 5 5 11 12 13 12 13 11 15 11 9 12 14 14 12 9 9 8 6 4 5 5 4 4 4 4 6 6 5 5 4 3 3 2 3 2 1 2 2 3
6 5 7 10 2 4 9 15 18 23 9 12 11 12 11 11 19 10 8 8 12 12 13 12 8 8 7 4 3 2 3 3 4 3 3 5 4 5 5 3 3 3 2 2 2 3 3 2 2
6 14 14 2 4 6 10 9 15 18 7 10 14 15 14 13 5 4 9 12 11 11 13 11 10 7 5 2 2 3 2 2 2 2 4 4 4 4 4 3 3 3 4 3 4 3 4 2 2
8 12 17 10 3 7 10 13 16 16 16 10 15 19 15 6 3 4 7 11 16 16 14 11 9 8 5 3 3 2 2 1 2 2 1 3 4 4 4 4 3 4 3 3 4 4 3 2 3
14 18 17 11 7 6 7 13 12 13 9 7 11 12 9 10 10 7 9 9 12 15 13 12 9 8 6 5 2 3 2 1 2 1 1 2 2 3 4 4 3 4 3 3 3 4 4 3 2
19 16 15 12 4 9 6 7 10 10 17 9 12 9 10 7 1 6 8 9 13 11 9 9 8 8 6 6 3 3 3 1 2 1 0 1 1 2 3 4 4 4 3 4 4 3 2 3 3
13 7 7 7 7 2 5 6 7 5 10 14 12 11 10 5 8 9 9 12 11 10 9 8 8 7 6 5 4 4 2 2 1 1 1 0 2 2 3 3 4 4 3 3 4 4 4 2 3
5 3 4 4 1 9 14 7 5 7 12 7 6 5 4 6 8 9 8 12 8 7 7 7 8 6 5 5 4 5 4 4 2 0 0 1 1 2 2 4 3 3 3 4 4 4 4 3 2
7 8 2 5 1 6 6 7 15 10 9 9 12 8 3 3 11 12 16 12 9 9 8 7 7 6 6 5 4 5 4 3 2 2 1 1 1 2 2 3 3 1 3 4 4 4 4 4 3
15 10 8 7 4 5 6 9 11 13 14 11 10 4 8 7 9 12 13 12 12 9 8 8 7 6 6 5 5 4 4 3 2 2 1 2 1 3 2 3 2 3 4 3 4 3 3 4 3
12 12 12 2 2 1 5 8 9 6 9 5 1 4 7 7 8 12 11 10 10 9 9 9 8 5 6 5 5 4 4 4 3 2 2 3 2 2 3 2 4 4 3 3 3 2 3 3 3
10 12 7 7 7 4 6 5 7 2 6 4 5 8 7 7 8 10 9 10 7 7 7 7 7 7 6 5 5 4 5 5 4 3 4 5 3 2 3 2 4 4 4 4 5 4 3 4 3
6 7 3 9 5 6 1 8 8 9 9 9 9 9 9 13 12 12 9 7 8 7 7 7 6 7 5 5 5 5 5 5 4 3 4 4 3 3 3 3 4 3 5 4 5 4 3 5 5
22 16 9 8 5 4 4 8 3 9 7 7 7 8 7 6 9 10 11 9 8 8 7 7 6 6 5 5 5 4 5 5 5 4 4 4 4 2 3 4 4 4 4 5 6 5 5 6 5
Wind_Direction
149 129 110 60 40 63 259 256 296 277 293 320 119 157 190 166 166 210 316 173 130 151 153 170 177 181 186 188 190 189 188 190 195 198 202 209 216 221 225 230 242 254 265 272 268 261 251 248 249
145 129 67 91 94 353 262 245 233 228 239 291 242 206 238 250 208 263 131 180 151 150 163 173 180 185 188 190 191 189 192 197 202 207 211 215 219 229 232 232 241 245 254 255 262 262 258 251 249
176 133 90 109 148 207 238 228 248 300 282 219 212 219 174 233 224 201 217 153 135 159 169 179 184 186 189 191 189 189 194 201 205 212 217 223 227 228 231 232 245 250 252 250 254 255 256 257 250
209 17 38 105 238 258 237 271 301 312 326 165 154 249 269 214 178 200 140 145 155 170 175 183 185 185 189 191 191 191 196 203 209 215 224 234 233 238 242 238 241 247 254 261 264 259 246 247 251
44 50 70 252 248 257 257 265 270 292 280 289 216 258 248 243 198 134 150 159 167 169 176 179 183 188 189 191 192 194 199 204 211 218 229 238 245 246 245 245 250 247 248 257 261 265 264 253 247
62 93 56 244 232 245 259 252 276 235 265 274 202 159 256 340 154 183 166 172 169 165 166 172 183 189 196 191 192 195 200 205 210 221 235 246 248 254 259 260 256 255 256 262 265 263 262 255 248
128 106 231 253 261 283 228 182 190 209 306 300 149 223 268 275 214 169 172 154 147 155 161 168 182 192 196 198 192 194 199 207 211 216 221 232 245 258 265 269 268 267 265 263 263 263 266 268 245
130 123 250 243 214 262 214 195 161 172 279 42 145 258 273 258 174 134 124 141 140 160 172 181 179 182 186 197 192 192 197 194 190 199 210 224 239 252 263 268 270 267 262 259 261 263 261 260 250
113 139 239 237 184 242 158 323 291 48 243 307 215 231 248 71 121 113 125 150 173 190 197 184 178 165 158 169 195 192 192 191 194 203 213 220 210 243 267 269 270 267 262 255 255 256 258 255 251
164 193 227 220 212 245 292 135 326 338 301 264 272 268 277 156 179 167 194 195 201 203 199 189 174 167 150 159 183 167 181 170 181 197 211 216 221 230 239 251 261 263 261 270 260 275 246 249 208
199 224 229 262 243 232 279 305 267 281 286 282 269 286 269 175 208 197 202 206 205 204 194 189 170 157 160 159 152 161 163 174 196 215 212 223 220 241 243 250 266 274 271 279 301 304 275 221 189
218 232 237 249 261 268 257 293 282 284 266 267 279 265 229 198 206 213 205 209 196 187 193 167 158 161 171 149 163 162 171 188 220 229 214 201 215 226 234 229 232 236 244 253 252 266 263 227 198
237 242 245 252 270 262 265 256 265 278 274 275 269 272 235 220 217 219 213 208 184 200 173 174 163 163 168 163 171 165 187 203 219 221 207 195 211 217 217 226 225 231 227 230 233 237 236 221 210
198 237 253 264 257 262 267 278 275 268 271 274 273 270 253 218 219 223 212 209 200 172 177 152 164 160 153 165 175 186 185 219 212 218 219 216 212 215 215 224 225 228 208 225 230 236 214 216 190
222 238 260 248 254 254 263 270 256 265 275 263 267 268 263 226 222 216 222 209 198 159 136 164 161 157 157 177 182 183 210 202 222 228 221 221 211 216 219 219 217 220 210 222 222 222 191 189 194
193 206 241 254 204 255 156 260 271 267 258 262 266 268 256 244 222 228 229 214 147 136 155 154 156 159 164 176 183 198 217 212 229 229 223 224 218 207 210 213 215 205 211 206 212 189 196 214 201
246 250 255 287 226 231 176 276 270 256 230 264 267 264 261 261 240 232 208 172 154 146 146 153 152 161 174 180 185 209 227 228 234 228 226 221 214 198 200 205 217 204 200 205 197 194 182 190 201
202 247 239 236 277 207 260 258 275 279 239 254 265 265 256 254 250 240 171 141 138 141 147 151 153 158 170 165 193 238 237 239 235 231 229 225 211 197 194 200 205 193 193 192 170 182 192 186 187
203 230 244 249 199 239 241 265 268 280 254 269 274 275 275 264 290 167 142 137 135 139 145 151 151 172 151 152 175 217 207 235 279 259 230 213 214 199 190 196 194 185 198 195 184 173 178 180 158
211 239 253 268 220 236 272 272 273 277 273 246 265 272 269 246 217 148 145 156 162 156 152 146 156 165 177 167 194 144 147 225 252 269 258 215 213 203 182 185 194 178 180 195 183 171 141 151 174
215 224 241 248 316 254 311 289 270 280 277 259 251 246 267 232 204 181 161 157 145 153 152 153 161 169 182 181 118 80 65 13 338 300 20 267 226 200 193 181 177 181 176 187 181 176 158 134 182
221 218 242 265 278 268 140 280 302 301 299 287 280 293 272 241 296 125 140 143 152 145 144 139 152 169 185 166 128 147 153 195 237 248 289 282 92 130 158 181 178 184 172 183 187 171 166 151 150
234 203 222 231 228 238 253 278 269 272 282 282 276 269 265 226 161 161 149 143 137 137 149 147 155 171 164 157 152 145 153 214 215 115 116 326 33 139 152 153 157 164 184 192 179 163 189 183 158
136 199 41 37 67 257 260 204 221 226 236 261 265 269 313 131 125 112 117 136 126 126 133 147 159 170 156 159 162 146 179 195 173 138 271 339 1 88 115 142 169 170 184 174 179 184 186 187 179
135 98 283 337 302 228 191 182 248 255 231 225 256 271 113 206 126 139 149 145 134 149 153 153 164 155 166 176 157 158 194 183 155 174 217 144 168 107 113 134 147 139 158 162 155 168 170 181 186
196 165 153 200 220 254 159 206 249 224 232 238 249 203 143 171 141 153 150 146 151 153 155 158 158 149 171 172 155 162 168 135 139 178 169 137 147 129 134 128 132 113 93 135 147 149 161 161 144
197 190 177 20 189 318 225 280 309 226 255 264 161 150 153 161 156 150 152 147 149 153 163 160 159 163 175 180 159 165 168 142 150 148 126 108 110 131 121 118 90 76 85 113 137 143 162 143 145
156 143 175 202 197 219 272 268 234 231 241 293 229 197 161 149 153 150 150 150 151 156 153 154 165 165 181 179 162 181 172 146 154 155 128 129 126 115 112 85 84 82 76 81 102 119 134 122 118
165 171 157 166 160 165 274 262 215 229 226 233 221 172 180 158 163 159 149 156 150 144 152 167 163 159 171 163 160 192 161 150 159 146 138 143 129 136 139 114 104 105 98 99 105 102 113 111 125
199 193 158 187 196 207 162 267 211 229 255 233 225 152 141 168 152 153 153 144 147 157 159 180 169 173 186 165 167 186 158 141 161 148 151 145 138 154 165 133 117 115 112 109 123 117 101 102 96